Location: Spruce Knob
(38.6995°N, 79.5330°W)
Time: 10:39:05
(UTC-05:00)

X-37B - Visible Passes

Search period start: 03 December 2021 00:00
Search period end: 13 December 2021 00:00
Orbit: 330 x 341 km, 45.0° (Epoch: 20 November)

Date Brightness Start Highest point End Pass type
(mag) Time Alt. Az. Time Alt. Az. Time Alt. Az.
03 Dec 2.9 18:34:43 10° S 18:35:19 13° SSE 18:35:19 13° SSE visible
04 Dec 2.6 18:53:59 10° SW 18:55:10 21° SSW 18:55:10 21° SSW visible
05 Dec 2.5 17:40:10 10° S 17:41:54 15° SE 17:43:39 10° ESE visible
05 Dec 3.5 19:14:16 10° WSW 19:14:56 16° WSW 19:14:56 16° WSW visible
06 Dec 1.0 17:59:25 10° SW 18:02:08 41° SSE 18:03:24 24° E visible
07 Dec 0.4 18:19:41 10° WSW 18:22:32 70° NNW 18:23:02 53° NE visible
08 Dec 1.8 18:40:27 10° W 18:42:38 31° NW 18:42:38 31° NW visible
09 Dec 0.4 17:25:07 10° WSW 17:27:58 71° NNW 17:30:49 10° ENE visible
09 Dec 3.2 19:01:22 10° WNW 19:02:11 15° NW 19:02:11 15° NW visible
10 Dec 1.4 17:45:52 10° W 17:48:31 33° NNW 17:50:30 15° NE visible
11 Dec 1.9 18:06:47 10° WNW 18:09:11 23° N 18:10:02 20° NNE visible
12 Dec 2.1 18:27:36 10° NW 18:29:35 21° N 18:29:35 21° N visible
